﻿測定場所 (Monitoring sites),日付 (Measurement date),時間 (Measurement time),線量率 最大値 (max) μGy/h,線量率 最小値 (min) μGy/h,線量率 平均値 (average) μGy/h,
足立 (Adachi),2012-10-28,23:01～24:00,0.0708,0.0579,0.0639,
足立 (Adachi),2012-10-28,22:01～23:00,0.0627,0.0554,0.0594,
足立 (Adachi),2012-10-28,21:01～22:00,0.0720,0.0595,0.0649,
足立 (Adachi),2012-10-28,20:01～21:00,0.0793,0.0690,0.0737,
足立 (Adachi),2012-10-28,19:01～20:00,0.0802,0.0697,0.0734,
足立 (Adachi),2012-10-28,18:01～19:00,0.0768,0.0643,0.0705,
足立 (Adachi),2012-10-28,17:01～18:00,0.0706,0.0578,0.0640,
足立 (Adachi),2012-10-28,16:01～17:00,0.0617,0.0548,0.0581,
足立 (Adachi),2012-10-28,15:01～16:00,0.0621,0.0550,0.0582,
足立 (Adachi),2012-10-28,14:01～15:00,0.0632,0.0552,0.0592,
足立 (Adachi),2012-10-28,13:01～14:00,0.0629,0.0565,0.0595,
足立 (Adachi),2012-10-28,12:01～13:00,0.0668,0.0573,0.0621,
足立 (Adachi),2012-10-28,11:01～12:00,0.0725,0.0639,0.0684,
足立 (Adachi),2012-10-28,10:01～11:00,0.0724,0.0576,0.0640,
足立 (Adachi),2012-10-28,09:01～10:00,0.0625,0.0547,0.0588,
足立 (Adachi),2012-10-28,08:01～09:00,0.0618,0.0549,0.0590,
足立 (Adachi),2012-10-28,07:01～08:00,0.0624,0.0562,0.0591,
足立 (Adachi),2012-10-28,06:01～07:00,0.0625,0.0559,0.0592,
足立 (Adachi),2012-10-28,05:01～06:00,0.0631,0.0568,0.0600,
足立 (Adachi),2012-10-28,04:01～05:00,0.0619,0.0560,0.0590,
足立 (Adachi),2012-10-28,03:01～04:00,0.0619,0.0571,0.0591,
足立 (Adachi),2012-10-28,02:01～03:00,0.0610,0.0558,0.0588,
足立 (Adachi),2012-10-28,01:01～02:00,0.0623,0.0562,0.0591,
足立 (Adachi),2012-10-28,00:01～01:00,0.0625,0.0556,0.0587,
足立 (Adachi),2012-10-27,23:01～24:00,0.0646,0.0556,0.0589,
足立 (Adachi),2012-10-27,22:01～23:00,0.0619,0.0538,0.0586,
足立 (Adachi),2012-10-27,21:01～22:00,0.0618,0.0554,0.0583,
足立 (Adachi),2012-10-27,20:01～21:00,0.0620,0.0539,0.0580,
足立 (Adachi),2012-10-27,19:01～20:00,0.0621,0.0556,0.0580,
足立 (Adachi),2012-10-27,18:01～19:00,0.0616,0.0549,0.0575,
足立 (Adachi),2012-10-27,17:01～18:00,0.0609,0.0552,0.0577,
足立 (Adachi),2012-10-27,16:01～17:00,0.0609,0.0541,0.0574,
足立 (Adachi),2012-10-27,15:01～16:00,0.0623,0.0542,0.0579,
足立 (Adachi),2012-10-27,14:01～15:00,0.0606,0.0539,0.0578,
足立 (Adachi),2012-10-27,13:01～14:00,0.0610,0.0545,0.0579,
足立 (Adachi),2012-10-27,12:01～13:00,0.0611,0.0533,0.0578,
足立 (Adachi),2012-10-27,11:01～12:00,0.0610,0.0538,0.0578,
足立 (Adachi),2012-10-27,10:01～11:00,0.0597,0.0541,0.0573,
足立 (Adachi),2012-10-27,09:01～10:00,0.0614,0.0528,0.0581,
足立 (Adachi),2012-10-27,08:01～09:00,0.0614,0.0544,0.0582,
足立 (Adachi),2012-10-27,07:01～08:00,0.0614,0.0548,0.0580,
足立 (Adachi),2012-10-27,06:01～07:00,0.0611,0.0545,0.0573,
足立 (Adachi),2012-10-27,05:01～06:00,0.0618,0.0545,0.0580,
足立 (Adachi),2012-10-27,04:01～05:00,0.0628,0.0549,0.0585,
足立 (Adachi),2012-10-27,03:01～04:00,0.0627,0.0548,0.0589,
足立 (Adachi),2012-10-27,02:01～03:00,0.0622,0.0542,0.0584,
足立 (Adachi),2012-10-27,01:01～02:00,0.0624,0.0549,0.0582,
足立 (Adachi),2012-10-27,00:01～01:00,0.0618,0.0538,0.0584,
足立 (Adachi),2012-10-26,23:01～24:00,0.0615,0.0553,0.0581,
足立 (Adachi),2012-10-26,22:01～23:00,0.0626,0.0548,0.0579,
足立 (Adachi),2012-10-26,21:01～22:00,0.0611,0.0532,0.0576,
足立 (Adachi),2012-10-26,20:01～21:00,0.0608,0.0542,0.0575,
足立 (Adachi),2012-10-26,19:01～20:00,0.0609,0.0549,0.0577,
足立 (Adachi),2012-10-26,18:01～19:00,0.0617,0.0546,0.0573,
足立 (Adachi),2012-10-26,17:01～18:00,0.0605,0.0531,0.0573,
足立 (Adachi),2012-10-26,16:01～17:00,0.0605,0.0540,0.0578,
足立 (Adachi),2012-10-26,15:01～16:00,0.0601,0.0528,0.0574,
足立 (Adachi),2012-10-26,14:01～15:00,0.0602,0.0524,0.0575,
足立 (Adachi),2012-10-26,13:01～14:00,0.0617,0.0543,0.0577,
足立 (Adachi),2012-10-26,12:01～13:00,0.0613,0.0539,0.0576,
足立 (Adachi),2012-10-26,11:01～12:00,0.0623,0.0538,0.0582,
足立 (Adachi),2012-10-26,10:01～11:00,0.0637,0.0539,0.0585,
足立 (Adachi),2012-10-26,09:01～10:00,0.0609,0.0535,0.0581,
足立 (Adachi),2012-10-26,08:01～09:00,0.0621,0.0556,0.0583,
足立 (Adachi),2012-10-26,07:01～08:00,0.0618,0.0544,0.0582,
足立 (Adachi),2012-10-26,06:01～07:00,0.0618,0.0550,0.0580,
足立 (Adachi),2012-10-26,05:01～06:00,0.0620,0.0559,0.0584,
足立 (Adachi),2012-10-26,04:01～05:00,0.0617,0.0557,0.0586,
足立 (Adachi),2012-10-26,03:01～04:00,0.0620,0.0553,0.0584,
足立 (Adachi),2012-10-26,02:01～03:00,0.0639,0.0553,0.0588,
足立 (Adachi),2012-10-26,01:01～02:00,0.0628,0.0545,0.0588,
足立 (Adachi),2012-10-26,00:01～01:00,0.0620,0.0539,0.0584,
足立 (Adachi),2012-10-25,23:01～24:00,0.0632,0.0550,0.0585,
足立 (Adachi),2012-10-25,22:01～23:00,0.0607,0.0552,0.0579,
足立 (Adachi),2012-10-25,21:01～22:00,0.0600,0.0533,0.0574,
足立 (Adachi),2012-10-25,20:01～21:00,0.0631,0.0541,0.0576,
足立 (Adachi),2012-10-25,19:01～20:00,0.0605,0.0545,0.0576,
足立 (Adachi),2012-10-25,18:01～19:00,0.0599,0.0532,0.0569,
足立 (Adachi),2012-10-25,17:01～18:00,0.0616,0.0545,0.0572,
足立 (Adachi),2012-10-25,16:01～17:00,0.0604,0.0540,0.0574,
足立 (Adachi),2012-10-25,15:01～16:00,0.0608,0.0542,0.0572,
足立 (Adachi),2012-10-25,14:01～15:00,0.0610,0.0537,0.0578,
足立 (Adachi),2012-10-25,13:01～14:00,0.0615,0.0542,0.0577,
足立 (Adachi),2012-10-25,12:01～13:00,0.0617,0.0543,0.0578,
足立 (Adachi),2012-10-25,11:01～12:00,0.0634,0.0549,0.0588,
足立 (Adachi),2012-10-25,10:01～11:00,0.0619,0.0556,0.0584,
足立 (Adachi),2012-10-25,09:01～10:00,0.0614,0.0547,0.0582,
足立 (Adachi),2012-10-25,08:01～09:00,0.0619,0.0540,0.0579,
足立 (Adachi),2012-10-25,07:01～08:00,0.0612,0.0540,0.0575,
足立 (Adachi),2012-10-25,06:01～07:00,0.0613,0.0550,0.0581,
足立 (Adachi),2012-10-25,05:01～06:00,0.0632,0.0539,0.0577,
足立 (Adachi),2012-10-25,04:01～05:00,0.0620,0.0551,0.0580,
足立 (Adachi),2012-10-25,03:01～04:00,0.0606,0.0541,0.0573,
足立 (Adachi),2012-10-25,02:01～03:00,0.0607,0.0545,0.0576,
足立 (Adachi),2012-10-25,01:01～02:00,0.0606,0.0548,0.0577,
足立 (Adachi),2012-10-25,00:01～01:00,0.0618,0.0544,0.0580,
足立 (Adachi),2012-10-24,23:01～24:00,0.0619,0.0542,0.0581,
足立 (Adachi),2012-10-24,22:01～23:00,0.0614,0.0538,0.0573,
足立 (Adachi),2012-10-24,21:01～22:00,0.0615,0.0543,0.0577,
足立 (Adachi),2012-10-24,20:01～21:00,0.0599,0.0544,0.0572,
足立 (Adachi),2012-10-24,19:01～20:00,0.0602,0.0542,0.0571,
足立 (Adachi),2012-10-24,18:01～19:00,0.0596,0.0544,0.0568,
足立 (Adachi),2012-10-24,17:01～18:00,0.0603,0.0532,0.0571,
足立 (Adachi),2012-10-24,16:01～17:00,0.0601,0.0537,0.0574,
足立 (Adachi),2012-10-24,15:01～16:00,0.0600,0.0531,0.0569,
足立 (Adachi),2012-10-24,14:01～15:00,0.0613,0.0537,0.0566,
足立 (Adachi),2012-10-24,13:01～14:00,0.0610,0.0542,0.0571,
足立 (Adachi),2012-10-24,12:01～13:00,0.0603,0.0526,0.0565,
足立 (Adachi),2012-10-24,11:01～12:00,0.0606,0.0538,0.0569,
足立 (Adachi),2012-10-24,10:01～11:00,0.0605,0.0528,0.0566,
足立 (Adachi),2012-10-24,09:01～10:00,0.0598,0.0527,0.0564,
足立 (Adachi),2012-10-24,08:01～09:00,0.0591,0.0523,0.0562,
足立 (Adachi),2012-10-24,07:01～08:00,0.0596,0.0528,0.0559,
足立 (Adachi),2012-10-24,06:01～07:00,0.0585,0.0525,0.0555,
足立 (Adachi),2012-10-24,05:01～06:00,0.0588,0.0537,0.0561,
足立 (Adachi),2012-10-24,04:01～05:00,0.0585,0.0530,0.0555,
足立 (Adachi),2012-10-24,03:01～04:00,0.0600,0.0532,0.0561,
足立 (Adachi),2012-10-24,02:01～03:00,0.0581,0.0535,0.0559,
足立 (Adachi),2012-10-24,01:01～02:00,0.0590,0.0528,0.0561,
足立 (Adachi),2012-10-24,00:01～01:00,0.0596,0.0523,0.0567,
足立 (Adachi),2012-10-23,23:01～24:00,0.0620,0.0549,0.0574,
足立 (Adachi),2012-10-23,22:01～23:00,0.0650,0.0556,0.0603,
足立 (Adachi),2012-10-23,21:01～22:00,0.0794,0.0606,0.0698,
足立 (Adachi),2012-10-23,20:01～21:00,0.0916,0.0704,0.0796,
足立 (Adachi),2012-10-23,19:01～20:00,0.0738,0.0614,0.0664,
足立 (Adachi),2012-10-23,18:01～19:00,0.0754,0.0612,0.0688,
足立 (Adachi),2012-10-23,17:01～18:00,0.0686,0.0562,0.0621,
足立 (Adachi),2012-10-23,16:01～17:00,0.0609,0.0537,0.0576,
足立 (Adachi),2012-10-23,15:01～16:00,0.0612,0.0540,0.0576,
足立 (Adachi),2012-10-23,14:01～15:00,0.0622,0.0556,0.0585,
足立 (Adachi),2012-10-23,13:01～14:00,0.0623,0.0550,0.0589,
足立 (Adachi),2012-10-23,12:01～13:00,0.0607,0.0545,0.0573,
足立 (Adachi),2012-10-23,11:01～12:00,0.0603,0.0529,0.0570,
足立 (Adachi),2012-10-23,10:01～11:00,0.0617,0.0540,0.0575,
足立 (Adachi),2012-10-23,09:01～10:00,0.0603,0.0528,0.0568,
足立 (Adachi),2012-10-23,08:01～09:00,0.0606,0.0540,0.0572,
足立 (Adachi),2012-10-23,07:01～08:00,0.0606,0.0526,0.0573,
足立 (Adachi),2012-10-23,06:01～07:00,0.0609,0.0518,0.0559,
足立 (Adachi),2012-10-23,05:01～06:00,0.0616,0.0538,0.0572,
足立 (Adachi),2012-10-23,04:01～05:00,0.0601,0.0537,0.0570,
足立 (Adachi),2012-10-23,03:01～04:00,0.0609,0.0540,0.0575,
足立 (Adachi),2012-10-23,02:01～03:00,0.0597,0.0546,0.0573,
足立 (Adachi),2012-10-23,01:01～02:00,0.0605,0.0544,0.0570,
足立 (Adachi),2012-10-23,00:01～01:00,0.0607,0.0545,0.0574,
足立 (Adachi),2012-10-22,23:01～24:00,0.0608,0.0536,0.0581,
足立 (Adachi),2012-10-22,22:01～23:00,0.0608,0.0549,0.0578,
足立 (Adachi),2012-10-22,21:01～22:00,0.0601,0.0550,0.0578,
足立 (Adachi),2012-10-22,20:01～21:00,0.0601,0.0533,0.0571,
足立 (Adachi),2012-10-22,19:01～20:00,0.0608,0.0543,0.0573,
足立 (Adachi),2012-10-22,18:01～19:00,0.0602,0.0521,0.0568,
足立 (Adachi),2012-10-22,17:01～18:00,0.0629,0.0525,0.0570,
足立 (Adachi),2012-10-22,16:01～17:00,0.0607,0.0536,0.0577,
足立 (Adachi),2012-10-22,15:01～16:00,0.0609,0.0555,0.0581,
足立 (Adachi),2012-10-22,14:01～15:00,0.0619,0.0550,0.0580,
足立 (Adachi),2012-10-22,13:01～14:00,0.0617,0.0547,0.0577,
足立 (Adachi),2012-10-22,12:01～13:00,0.0619,0.0556,0.0581,
足立 (Adachi),2012-10-22,11:01～12:00,0.0623,0.0559,0.0589,
足立 (Adachi),2012-10-22,10:01～11:00,0.0617,0.0559,0.0583,
足立 (Adachi),2012-10-22,09:01～10:00,0.0617,0.0553,0.0584,
足立 (Adachi),2012-10-22,08:01～09:00,0.0609,0.0546,0.0578,
足立 (Adachi),2012-10-22,07:01～08:00,0.0606,0.0530,0.0572,
足立 (Adachi),2012-10-22,06:01～07:00,0.0607,0.0537,0.0573,
足立 (Adachi),2012-10-22,05:01～06:00,0.0631,0.0536,0.0577,
足立 (Adachi),2012-10-22,04:01～05:00,0.0613,0.0552,0.0584,
足立 (Adachi),2012-10-22,03:01～04:00,0.0617,0.0554,0.0585,
足立 (Adachi),2012-10-22,02:01～03:00,0.0616,0.0561,0.0588,
足立 (Adachi),2012-10-22,01:01～02:00,0.0611,0.0537,0.0582,
足立 (Adachi),2012-10-22,00:01～01:00,0.0619,0.0524,0.0577,
